SCP
0 0 0 0 0 0 0 0 0 0 0 0 0 0 0 0 0 0 0 0 0 0 0 0 0 0 0 0 0 0 0 0 0 0 0 0 0 0 0 0 0 0 0 0
0 0 0 0 0 0 0 0 0 0 0 0 0 0 0 0 0 0 0 0 0 0 0 0 0 0 0 0 0 0 0 0 0 0 0 0 0 0 0 0 0 0 0 0
0 0 0 0 0 0 0 0 0 0 0 0 0 0 0 0 0 0 0 0 0 0 0 0 0 0 0 0 0 0 0 0 0 0 0 0 0 0 0 0 0 0 0 0
0 0 0 0 0 0 0 0 0 0 0 0 0 0 0 0 0 0 0 0 0 0 0 0 0 0 0 0 0 0 0 0 0 0 0 0 0 0 0 0 0 0 0 0
0 0 0 0 0 0 0 0 0 0 0 0 0 0 0 0 0 0 0 0 0 0 0 0 0 0 0 0 0 0 0 0 0 0 0 0 0 0 0 0 0 0 0 0
0 0 0 0 0 0 0 0 0 0 0 0 0 0 0 0 0 0 0 0 0 0 0 0 0 0 0 0 0 0 0 0 0 0 0 0 0 0 0 0 0 0 0 0
0 0 0 0 0 0 0 0 0 0 0 0 0 0 0 0 0 0 0 0 0 0 0 0 0 0 0 0 0 0 0 0 0 0 0 0 0 0 0 0 0 0 0 0
0 0 0 0 0 0 0 0 0 0 0 0 0 0 0 0 0 0 0 0 0 0 0 0 0 0 0 0 0 0 0 0 0 0 0 0 0 0 0 0 0 0 0 0
0 0 0 0 0 0 0 0 0 0 0 0 0 0 0 0 0 0 0 0 0 0 0 0 0 0 0 0 0 0 0 0 0 0 0 0 0 0 0 0 0 0 0 0
0 0 0 0 0 0 0 0 0 0 0 0 0 0 0 0 0 0 0 0 0 0 0 0 0 0 0 0 0 0 0 0 0 0 0 0 0 0 0 0 0 0 0 0
0 0 0 0 0 0 0 0 0 0 0 0 0 0 0 0 0 0 0 0 0 0 0 0 0 0 0 0 0 0 0 0 0 0 0 0 0 0 0 0 0 0 0 0
0 0 0 0 0 0 0 0 0 0 0 0 0 0 0 0 0 0 0 0 0 0 0 0 0 0 0 0 0 0 0 0 0 0 0 0 0 0 0 0 0 0 0 0
0 0 0 0 0 0 0 0 0 0 0 0 0 0 0 0 0 0 0 0 0 0 0 0 0 0 0 0 0 0 0 0 0 0 0 0 0 0 0 0 0 0 0 0
0 0 0 0 0 0 0 0 0 0 0 0 0 0 0 0 0 0 0 0 0 0 0 0 0 0 0 0 0 0 0 0 0 0 0 0 0 0 0 0 0 0 0 0
0 0 0 0 0 0 0 0 0 0 0 0 0 0 0 0 0 0 0 0 0 0 0 0 0 0 0 0 0 0 0 0 0 0 0 0 0 0 0 0 0 0 0 0
0 0 0 0 0 0 0 0 0 0 0 0 0 0 0 0 0 0 0 0 0 0 0 0 0 0 0 0 0 0 0 0 0 0 0 0 0 0 0 0 0 0 0 0
0 0 0 0 0 0 0 0 0 0 0 0 0 0 0 0 0 0 0 0 0 0 0 0 0 0 0 0 0 0 0 0 0 0 0 0 0 0 0 0 0 0 0 0
0 0 0 0 0 0 0 0 0 0 0 0 0 0 0 0 0 0 0 0 0 0 0 0 0 0 0 0 0 0 0 0 0 0 0 0 0 0 0 0 0 0 0 0
0 0 0 0 0 0 0 0 0 0 0 0 0 0 0 0 0 0 0 0 0 0 0 0 0 0 0 0 0 0 0 0 0 0 0 0 0 0 0 0 0 0 0 0
0 0 0 0 0 0 0 0 0 0 0 0 0 0 0 0 0 0 0 0 0 0 0 0 0 0 0 0 0 0 0 0 0 0 0 0 0 0 0 0 0 0 0 0
0 0 0 0 0 0 0 -0 -0 0 0 0 0 0 0 0 0 0 0 0 0 0 0 0 0 0 0 0 0 0 0 0 0 0 0 0 0 0 0 0 0 0 0 0
0 0 0 0 0 0 0 0 0 0 0 0 0 0 0 0 0 0 0 0 0 0 0 0 0 0 0 0 0 0 0 0 0 0 0 0 0 0 0 0 0 0 0 0
0 0 0 0 0 0 0 0 0 0 0 0 0 0 0 0 0 0 0 0 0 0 0 0 0 0 0 0 0 0 0 0 0 0 0 0 0 0 0 0 0 0 0 0
0 0 0 0 0 0 0 0 0 0 0 0 0 0 0 0 0 0 0 0 0 0 0 0 0 0 0 0 0 0 0 0 0 0 0 0 0 0 0 0 0 0 0 0
0 0 0 0 0 0 0 0 0 0 0 0 0 0 0 0 0 0 0 0 0 0 0 0 0 0 0 0 0 0 0 0 0 0 0 0 0 0 0 0 0 0 0 0
0 0 0 0 0 0 0 0 0 0 0 0 0 0 0 0 0 0 0 0 0 0 0 0 0 0 0 0 0 0 0 0 0 0 0 0 0 0 0 0 0 0 0 0
0 0 0 0 0 0 0 0 0 0 0 0 0 0 0 0 0 0 0 0 0 0 0 0 0 0 0 0 0 0 0 0 0 0 0 0 0 0 0 0 0 0 0 0
Wind_Speed
9 7 6 7 8 11 13 11 10 10 11 12 8 6 4 2 5 7 9 10 12 12 11 11 10 10 9 8 7 7 6 5 5 4 4 5 6 6 7 7 8 7 8 8
7 7 5 8 13 14 14 14 15 14 17 13 10 5 4 5 6 9 10 12 13 13 12 13 12 11 9 8 8 7 6 5 4 4 5 5 6 6 7 7 7 7 7 8
5 1 3 12 14 16 11 12 10 15 15 7 6 6 7 7 7 10 11 12 14 15 14 13 12 11 11 9 7 7 6 5 5 5 5 6 7 7 7 7 7 8 7 8
4 4 10 12 2 7 11 10 12 12 10 8 9 7 6 7 9 10 10 11 13 13 12 11 10 10 9 9 8 7 6 6 6 6 6 6 6 7 7 7 7 7 7 8
2 5 11 10 4 4 7 9 11 15 15 14 7 6 8 11 11 11 10 10 11 12 11 10 11 11 10 9 8 7 7 7 7 6 6 6 7 7 7 6 6 6 7 8
4 5 10 9 1 2 3 8 9 11 12 11 2 4 9 5 6 7 7 8 9 10 11 11 11 12 12 10 9 10 9 8 7 7 7 7 7 7 6 6 6 6 7 7
6 7 13 7 4 4 5 9 5 8 10 8 9 13 8 5 6 7 7 8 10 11 11 12 13 13 13 12 12 11 8 7 7 6 6 7 6 5 6 6 6 6 7 7
7 8 15 7 8 10 12 5 4 6 8 9 11 11 9 8 9 8 8 9 10 11 11 11 14 14 14 14 11 9 8 7 6 6 6 5 5 5 5 5 5 5 6 7
14 15 7 10 12 11 5 6 6 6 8 8 10 11 11 10 10 10 10 10 10 10 11 11 14 15 15 12 10 10 9 8 6 6 6 5 5 5 4 4 3 4 4 5
8 13 11 9 11 13 13 14 14 12 11 10 12 13 12 10 10 10 11 11 10 11 13 14 15 15 13 11 12 11 10 8 7 6 5 5 4 4 3 3 3 3 4 5
10 8 8 11 14 17 16 15 14 14 13 13 13 15 14 11 10 11 11 11 12 14 16 16 16 15 13 12 13 12 10 8 7 6 5 4 4 4 4 4 4 4 4 4
14 9 9 11 8 10 12 14 13 13 14 12 13 15 13 11 10 10 11 12 13 15 15 15 16 15 14 13 14 13 10 9 7 5 5 4 3 3 7 6 9 10 9 8
19 15 12 16 17 16 15 14 13 13 14 14 12 11 11 10 8 9 10 14 18 18 17 15 16 16 15 15 15 14 11 9 7 6 5 5 4 3 3 4 7 8 8 9
14 13 15 16 19 19 16 15 14 13 12 11 10 9 8 9 8 10 13 16 15 14 14 15 16 17 17 16 16 14 12 12 10 6 6 5 4 4 3 3 3 3 5 8
16 14 16 17 19 19 14 11 12 13 11 10 8 9 9 10 12 13 12 10 11 13 15 15 17 17 16 17 17 15 12 9 8 6 6 5 5 4 3 3 3 3 3 4
13 12 13 15 18 17 13 11 11 12 10 9 9 9 11 12 12 10 9 12 15 18 18 18 18 16 17 18 17 13 11 16 12 8 6 6 5 4 4 3 3 3 3 2
10 10 10 11 13 13 10 8 8 9 10 10 11 11 9 9 9 10 11 13 15 15 16 18 16 15 17 18 16 12 11 12 18 10 7 7 6 5 4 4 3 3 3 4
4 5 6 7 8 9 9 9 9 10 10 11 11 9 8 9 12 12 10 9 10 12 13 13 13 14 17 18 15 11 11 10 9 8 7 7 6 5 5 4 4 4 3 3
7 7 7 8 8 8 8 9 10 10 10 10 10 10 10 11 11 10 7 10 13 16 13 13 22 18 17 19 18 11 12 12 10 9 8 11 9 6 6 5 5 4 3 3
7 7 7 8 8 7 8 9 9 10 10 9 10 11 11 10 9 8 9 12 13 9 9 14 17 15 16 18 21 11 13 13 12 11 10 9 8 7 7 6 5 4 4 3
7 7 8 8 9 9 9 10 10 12 11 10 10 12 13 12 8 8 8 11 9 8 11 21 16 13 15 17 22 12 13 13 12 11 11 10 9 8 7 7 6 5 4 3
7 8 9 10 11 12 10 9 10 12 12 11 11 11 11 11 9 8 11 10 6 13 12 12 12 17 20 22 14 13 13 13 12 10 10 10 9 9 8 7 7 6 5 4
8 9 10 10 11 13 12 11 11 11 11 11 11 11 11 10 7 8 10 6 5 14 12 10 17 26 30 19 13 14 14 14 13 12 11 10 9 9 8 8 7 6 5 4
10 11 11 11 10 12 13 13 11 10 11 11 11 10 9 9 8 7 7 8 12 15 11 14 25 29 29 14 13 13 13 13 12 11 10 9 9 8 8 8 7 6 6 6
10 11 11 11 11 11 12 12 11 11 11 10 10 9 7 7 8 7 5 6 12 14 9 16 26 28 20 11 13 13 13 12 12 11 11 10 10 9 8 8 8 7 6 6
11 11 11 11 11 11 10 9 9 9 8 9 9 7 6 5 7 6 5 6 9 12 9 8 13 19 13 12 12 13 12 13 14 12 11 11 11 10 9 9 10 7 7 6
12 11 10 10 9 8 8 9 10 10 9 9 11 8 6 5 5 6 6 6 6 7 7 7 9 10 11 11 11 11 11 10 11 11 11 11 10 10 10 10 8 7 7 6
Wind_Direction
272 272 239 242 230 201 209 218 227 244 254 265 281 300 296 234 189 185 181 185 189 188 185 183 183 184 184 183 178 178 190 213 232 248 269 280 281 281 282 282 288 283 285 288
276 249 246 262 244 228 224 230 244 263 274 269 275 268 258 246 220 208 202 197 194 191 188 188 186 184 180 180 176 174 192 211 225 248 263 269 275 279 281 281 280 281 284 287
274 179 319 266 237 211 211 211 205 229 241 261 260 248 247 247 235 222 212 200 195 195 195 190 185 179 178 176 168 174 189 205 223 240 256 265 277 283 283 283 282 283 283 285
282 315 251 246 273 203 209 231 218 242 262 273 267 281 273 254 243 237 215 200 194 191 190 182 171 167 163 161 165 176 192 208 219 231 247 259 268 274 277 278 280 282 284 285
248 263 274 274 230 182 196 259 224 230 251 261 273 329 283 250 227 224 212 195 189 183 177 169 164 159 155 162 169 182 199 208 214 221 237 252 261 267 271 278 282 281 282 285
209 232 250 260 133 86 124 280 244 208 232 249 182 291 272 235 201 210 198 178 170 165 162 163 162 154 160 173 182 197 203 206 209 215 228 244 255 265 273 278 279 284 287 286
217 235 262 261 139 124 183 245 213 199 221 225 204 224 241 202 207 204 193 176 164 163 170 170 161 159 173 183 197 200 193 197 205 214 227 241 254 265 275 280 287 291 293 293
188 210 252 199 154 195 222 251 228 227 229 231 236 249 245 224 217 203 194 179 170 171 172 164 163 170 183 196 195 181 182 191 203 217 230 240 247 262 269 280 294 298 300 303
196 215 242 174 207 230 264 276 266 259 256 246 251 256 252 239 222 207 198 190 180 174 170 169 174 181 190 192 177 175 179 191 205 219 226 230 238 255 270 280 286 294 300 307
239 250 255 233 236 252 254 253 259 260 259 253 251 256 256 245 227 210 200 193 182 174 180 185 185 192 194 177 171 173 182 192 202 213 222 229 234 236 245 260 275 287 297 303
250 261 282 262 239 244 252 254 256 257 250 244 246 253 250 246 230 213 201 192 187 192 194 193 187 193 189 174 169 175 183 192 199 204 211 224 232 231 239 229 239 262 255 269
249 240 235 258 252 245 250 256 255 257 262 253 239 249 251 245 232 211 200 192 194 199 199 193 189 192 187 176 171 175 185 193 195 195 202 209 223 257 271 263 273 282 285 290
255 262 257 269 274 272 268 269 268 262 261 266 260 245 245 244 232 211 200 197 201 202 199 191 189 190 185 178 175 180 185 186 188 190 194 201 205 217 260 290 293 294 293 300
259 266 267 266 267 271 271 272 274 272 268 264 265 258 246 243 232 215 212 208 203 198 198 194 192 192 183 177 178 182 183 189 188 187 189 194 197 203 213 240 282 294 303 309
257 252 256 265 270 275 278 282 285 283 282 278 267 258 248 241 236 230 219 199 190 196 200 199 198 192 178 177 180 181 181 184 185 180 185 190 191 194 207 227 244 267 287 307
267 265 265 269 274 281 289 293 292 293 296 290 282 267 252 243 243 236 211 189 192 203 202 201 201 189 176 177 178 179 183 188 181 181 185 188 189 194 204 215 230 253 271 276
273 276 274 277 283 291 302 309 304 302 303 296 286 278 267 255 249 240 223 206 207 209 204 202 197 181 176 177 177 177 176 186 187 184 185 186 187 193 197 200 214 234 249 265
295 300 306 312 319 323 324 321 312 304 296 290 290 287 273 254 248 245 230 209 208 215 210 199 186 177 176 176 176 174 172 175 179 180 182 186 188 190 191 197 209 226 241 269
356 348 343 339 332 323 315 308 301 297 295 297 297 287 273 260 253 248 224 203 209 219 210 190 190 182 179 181 176 173 171 171 176 180 181 194 196 191 191 195 204 213 221 231
347 340 333 324 318 310 302 300 303 305 308 309 301 294 288 278 262 246 224 220 220 213 183 183 188 183 180 183 178 175 174 173 175 178 181 187 189 190 193 196 198 202 207 216
325 322 321 318 314 310 306 310 314 309 305 302 295 290 287 284 271 248 235 241 227 191 181 190 187 182 180 182 182 178 176 175 177 178 181 186 189 190 191 192 193 196 199 205
311 314 315 312 310 308 305 303 299 295 294 293 289 285 285 285 276 256 240 241 217 190 185 190 186 184 183 183 182 179 179 177 177 177 181 184 186 189 189 187 189 193 192 193
304 302 300 298 295 293 293 290 286 284 284 284 284 283 279 275 268 262 267 238 201 203 195 190 190 189 187 183 181 180 180 179 179 179 182 184 186 186 185 185 186 185 183 188
296 293 287 284 283 285 287 286 281 278 276 275 271 266 266 275 275 254 248 235 212 210 202 195 194 193 189 183 180 181 181 181 179 178 178 180 181 181 181 179 179 180 182 185
286 285 284 284 283 280 279 281 283 280 278 278 273 263 250 245 256 265 246 227 222 218 203 200 198 196 189 182 181 182 181 181 178 175 177 178 180 181 181 178 178 178 180 184
284 283 281 275 273 276 278 278 278 276 276 279 281 271 256 247 248 254 247 226 218 218 202 190 194 197 187 181 183 183 180 180 180 179 177 177 178 178 179 179 176 178 179 180
281 280 281 280 275 268 268 270 272 274 271 270 277 276 262 252 246 245 241 229 217 212 195 184 185 187 183 180 181 181 179 178 176 174 174 176 177 178 179 175 175 174 172 173